Location: Haram ta Haram Freeway
(35.0583°N, 51.4202°E)
Time: 14:06:43
(UTC+04:30)

CAS-4A - Pass Details

Date: 07 July 2020
Orbit: 528 x 545 km, 43.0° (Epoch: 02 August)

Event Time Altitude Azimuth Distance (km) Brightness Sun altitude
Exits shadow 03:02:04 24° 94° (E) 1,145 ? -26.5°
Drops below altitude 10° 03:03:59 10° 76° (ENE) 1,783 ? -26.3°
Sets 03:06:20 0° 68° (ENE) 2,673 ? -26.0°
